User: anonymous   Login
Location: Unspecified
(35.7250°N, 0.0000°E)
Time: 05:24:29
(UTC+00:00)
Language:

SRMSAT - Orbit

View from above orbital plane
View from above orbital plane
View from above satellite
View from above satellite

Ground track
Ground track

The orbit data is extracted from the following two-line orbital elements,

1 37841U 11058D   19285.73913896 +.00000294 +00000-0 +16268-4 0  9991
2 37841 019.9730 050.2203 0011984 031.7393 116.1523 14.10640862413004
Epoch (UTC): 12 October 2019 17:44:21
Eccentricity: 0.0011984
inclination: 19.9730°
perigee height: 848 km
apogee height: 866 km
right ascension of ascending node: 50.2203°
argument of perigee: 31.7393°
revolutions per day: 14.10640862
mean anomaly at epoch: 116.1523°
orbit number at epoch: 41300

The dashed part of the orbit path shows where the satellite is in the earth's shadow,  

DLR